Location: Nebraska Star Party
(42.6000°N, 100.8833°W)
Time: 03:30:50
(UTC-05:00)

Amateur Radio Satellites - All Passes

Search period start: 24 October 2014 03:00
Search period end: 25 October 2014 03:00
Location: Nebraska Star Party, 42.6000°N, 100.8833°W

Satellite Date Start Highest point End Downlink Frequencies (MHz)
Time Altitude Azimuth
Oscar 16 24 Oct 03:12:50 03:17:57 65° 102° (ESE) 03:23:01 437.025 USB, Beacon 2401.1428
AO-Echo 24 Oct 03:15:43 03:20:40 38° 97° (E) 03:25:34 ?
Uribyol 2 24 Oct 03:30:50 03:35:45 40° 98° (E) 03:40:37 436.500 FM
ITAMSAT 1 24 Oct 03:36:34 03:41:34 43° 99° (E) 03:46:30 435.822 SSB
PCSat 24 Oct 03:37:45 03:39:31 12° 102° (ESE) 03:41:18 145.825 MHz
Gurwin Techsat 1B 24 Oct 03:51:04 03:55:49 32° 96° (E) 04:00:31 435.225 FM
RS-15 24 Oct 03:55:11 04:03:19 23° 355° (N) 04:11:35 29.354 - 29.394 USB, Beacon 29.352 USB
TMSAT-1 24 Oct 04:02:58 04:07:38 30° 95° (E) 04:12:16 436.925 FM
Oscar 19 24 Oct 04:06:43 04:11:31 42° 291° (WNW) 04:16:18 437.125 CW, 437.150 USB
JAS-1B 24 Oct 04:15:39 04:22:02 58° 289° (WNW) 04:29:38 435.800 - 435.900 CW/SSB
AO-27 24 Oct 04:21:50 04:27:05 73° 286° (WNW) 04:32:16 436.795 MHz FM
Oscar 16 24 Oct 04:53:31 04:56:46 17° 299° (WNW) 05:00:00 437.025 USB, Beacon 2401.1428
Sapphire 24 Oct 04:54:14 04:59:27 53° 114° (ESE) 05:04:44 437.095 MHz 1200 baud AX-25 AFSK
AO-Echo 24 Oct 04:54:43 04:59:16 30° 294° (WNW) 05:03:49 ?
Uosat F 24 Oct 05:01:18 05:04:10 15° 91° (E) 05:07:00 435.120 FM
Uribyol 2 24 Oct 05:10:43 05:15:01 27° 295° (WNW) 05:19:17 436.500 FM
ITAMSAT 1 24 Oct 05:16:34 05:20:48 25° 296° (WNW) 05:25:00 435.822 SSB
PCSat 24 Oct 05:16:39 05:22:04 87° 119° (ESE) 05:27:32 145.825 MHz
AO-7 24 Oct 05:19:53 05:27:27 37° 98° (E) 05:34:59 29.400 - 29.500 MHz
Gurwin Techsat 1B 24 Oct 05:31:00 05:35:45 34° 293° (WNW) 05:40:29 435.225 FM
TMSAT-1 24 Oct 05:42:46 05:47:33 36° 292° (WNW) 05:52:20 436.925 FM
OPAL 24 Oct 05:44:20 05:49:26 67° 71° (ENE) 05:54:31 ?
AO-27 24 Oct 06:04:42 06:05:39 11° 304° (NW) 06:06:35 436.795 MHz FM
RS-15 24 Oct 06:10:44 06:20:25 33° 30° (NNE) 06:30:21 29.354 - 29.394 USB, Beacon 29.352 USB
JAS-1B 24 Oct 06:10:54 06:11:37 10° 307° (NW) 06:12:21 435.800 - 435.900 CW/SSB
Uosat F 24 Oct 06:38:23 06:43:24 66° 287° (WNW) 06:48:23 435.120 FM
Sapphire 24 Oct 06:38:39 06:43:10 27° 313° (NW) 06:47:44 437.095 MHz 1200 baud AX-25 AFSK
Hamsat 24 Oct 06:45:01 06:48:16 21° 94° (E) 06:51:31 145.90 MHz
JAS-2 24 Oct 06:50:50 06:58:24 53° 98° (E) 07:05:59 435.800 - 435.900 CW/SSB, 435.910 FM
PCSat 24 Oct 07:02:32 07:06:13 18° 319° (NW) 07:09:56 145.825 MHz
AO-7 24 Oct 07:12:28 07:20:26 53° 296° (WNW) 07:28:24 29.400 - 29.500 MHz
OPAL 24 Oct 07:25:47 07:28:45 15° 267° (W) 07:31:43 ?
STRAND 1 24 Oct 07:27:32 07:32:35 65° 73° (ENE) 07:37:42 ?
Saudisat 1A 24 Oct 07:39:56 07:42:12 14° 109° (ESE) 07:44:28 436.775 MHz
Hamsat 24 Oct 08:20:31 08:24:16 32° 290° (WNW) 08:28:01 145.90 MHz
RS-15 24 Oct 08:23:16 08:34:30 86° 57° (ENE) 08:46:12 29.354 - 29.394 USB, Beacon 29.352 USB
SO-67 24 Oct 08:29:58 08:33:15 40° 98° (E) 08:36:30 435.3500 MHz FM
JAS-2 24 Oct 08:36:14 08:43:07 37° 296° (WNW) 08:50:06 435.800 - 435.900 CW/SSB, 435.910 FM
AO-7 24 Oct 09:08:05 09:11:20 13° 318° (NW) 09:14:35 29.400 - 29.500 MHz
STRAND 1 24 Oct 09:09:14 09:12:14 16° 270° (W) 09:15:16 ?
Saudisat 1A 24 Oct 09:16:52 09:21:13 65° 306° (NW) 09:25:37 436.775 MHz
SO-67 24 Oct 10:04:21 10:05:51 12° 294° (WNW) 10:07:21 435.3500 MHz FM
MaSat-1 24 Oct 10:13:51 10:16:29 58° 62° (ENE) 10:18:53 437.345 MHz
Oscar 11 24 Oct 10:33:39 10:36:39 18° 93° (E) 10:39:38 145.825 FM, Beacon 2401.500 USB
HO-68 24 Oct 10:34:35 10:41:42 59° 102° (ESE) 10:48:45 435.675 MHz FM
RS-15 24 Oct 10:37:04 10:45:32 26° 258° (WSW) 10:54:19 29.354 - 29.394 USB, Beacon 29.352 USB
Saudisat 1A 24 Oct 10:59:58 11:01:40 12° 326° (NNW) 11:03:22 436.775 MHz
ZACube-1 24 Oct 11:20:52 11:24:23 24° 94° (E) 11:27:49 437.345 MHz
UKube-1 24 Oct 11:26:37 11:31:00 73° 103° (ESE) 11:35:21 145.840 MHz, 145.915 MHz
KITSAT 1 24 Oct 11:42:13 11:46:46 16° 100° (E) 11:51:19 435.175 FM
Sapphire 24 Oct 12:00:18 12:01:56 11° 33° (NNE) 12:03:34 437.095 MHz 1200 baud AX-25 AFSK
FUNcube-1 24 Oct 12:05:14 12:09:31 77° 102° (ESE) 12:13:41 145.950 - 145.970 MHz USB
Oscar 11 24 Oct 12:08:58 12:13:00 40° 289° (WNW) 12:17:02 145.825 FM, Beacon 2401.500 USB
PCSat 24 Oct 12:21:48 12:25:07 16° 39° (NE) 12:28:25 145.825 MHz
Oscar 10/S400 24 Oct 12:22:13 12:37:50 19° 151° (SSE) 12:49:48 145.825 - 145.975 CW/USB, Beacon 145.810 USB
HO-68 24 Oct 12:22:58 12:28:58 30° 301° (WNW) 12:34:58 435.675 MHz FM
Oscar 16 24 Oct 12:54:21 12:56:59 14° 59° (ENE) 12:59:36 437.025 USB, Beacon 2401.1428
ZACube-1 24 Oct 12:57:05 13:00:47 29° 292° (WNW) 13:04:23 437.345 MHz
UKube-1 24 Oct 13:04:53 13:06:36 12° 300° (WNW) 13:08:18 145.840 MHz, 145.915 MHz
SO-50 24 Oct 13:07:33 13:10:42 19° 110° (ESE) 13:13:54 436.795 FM
JAS-1B 24 Oct 13:14:34 13:18:39 20° 60° (ENE) 13:22:39 435.800 - 435.900 CW/SSB
ITAMSAT 1 24 Oct 13:21:33 13:21:50 10° 55° (NE) 13:22:06 435.822 SSB
KITSAT 1 24 Oct 13:32:50 13:40:54 82° 119° (ESE) 13:49:01 435.175 FM
Sapphire 24 Oct 13:41:26 13:46:43 50° 54° (NE) 13:51:58 437.095 MHz 1200 baud AX-25 AFSK
ISS 24 Oct 13:44:01 13:47:08 39° 139° (SE) 13:50:17 145.800 FM
FUNcube-1 24 Oct 13:44:18 13:45:14 11° 300° (WNW) 13:46:09 145.950 - 145.970 MHz USB
Oscar 19 24 Oct 13:45:18 13:50:02 38° 68° (ENE) 13:54:46 437.125 CW, 437.150 USB
AO-27 24 Oct 14:02:37 14:06:46 25° 64° (ENE) 14:10:56 436.795 MHz FM
PCSat 24 Oct 14:03:58 14:09:26 80° 59° (ENE) 14:14:51 145.825 MHz
AO-Echo 24 Oct 14:29:22 14:34:04 49° 71° (ENE) 14:38:57 ?
Oscar 16 24 Oct 14:30:28 14:35:39 82° 256° (WSW) 14:40:50 437.025 USB, Beacon 2401.1428
AO-7 24 Oct 14:33:05 14:36:28 13° 42° (NE) 14:39:52 29.400 - 29.500 MHz
UOSAT-12 24 Oct 14:34:41 14:36:57 14° 108° (ESE) 14:39:15 437.025 FM, 437.400 FM
SO-50 24 Oct 14:46:26 14:50:50 51° 309° (NW) 14:55:23 436.795 FM
Uribyol 2 24 Oct 14:49:16 14:54:26 66° 73° (ENE) 14:59:38 436.500 FM
ITAMSAT 1 24 Oct 14:55:11 15:00:21 70° 73° (ENE) 15:05:34 435.822 SSB
JAS-1B 24 Oct 15:03:03 15:08:57 58° 258° (WSW) 15:14:33 435.800 - 435.900 CW/SSB
Gurwin Techsat 1B 24 Oct 15:12:44 15:17:53 54° 71° (ENE) 15:23:04 435.225 FM
ISS 24 Oct 15:20:49 15:23:53 33° 337° (NNW) 15:26:57 145.800 FM
TMSAT-1 24 Oct 15:24:17 15:29:23 51° 71° (ENE) 15:34:31 436.925 FM
Oscar 19 24 Oct 15:25:08 15:29:27 27° 265° (W) 15:33:48 437.125 CW, 437.150 USB
Sapphire 24 Oct 15:25:29 15:29:49 25° 252° (WSW) 15:34:08 437.095 MHz 1200 baud AX-25 AFSK
KITSAT 1 24 Oct 15:30:22 15:37:12 29° 321° (NW) 15:44:05 435.175 FM
AO-27 24 Oct 15:41:02 15:46:00 45° 261° (W) 15:51:01 436.795 MHz FM
PCSat 24 Oct 15:49:18 15:52:07 14° 257° (WSW) 15:54:56 145.825 MHz
Saudisat 1A 24 Oct 16:04:10 16:07:17 18° 40° (NE) 16:10:23 436.775 MHz
AO-Echo 24 Oct 16:09:39 16:13:09 19° 269° (W) 16:16:44 ?
UOSAT-12 24 Oct 16:11:50 16:16:28 73° 305° (NW) 16:21:12 437.025 FM, 437.400 FM
Uosat F 24 Oct 16:14:55 16:18:52 24° 64° (ENE) 16:22:50 435.120 FM
AO-7 24 Oct 16:19:28 16:27:25 54° 64° (ENE) 16:35:23 29.400 - 29.500 MHz
Uribyol 2 24 Oct 16:31:16 16:34:22 16° 270° (W) 16:37:29 436.500 FM
SO-50 24 Oct 16:31:18 16:32:31 11° 330° (NNW) 16:33:46 436.795 FM
ITAMSAT 1 24 Oct 16:37:31 16:40:21 15° 270° (W) 16:43:13 435.822 SSB
Gurwin Techsat 1B 24 Oct 16:54:21 16:58:10 20° 268° (W) 17:02:01 435.225 FM
ISS 24 Oct 16:58:59 17:01:18 17° 357° (N) 17:03:37 145.800 FM
JAS-2 24 Oct 17:05:20 17:09:58 23° 58° (ENE) 17:15:01 435.800 - 435.900 CW/SSB, 435.910 FM
TMSAT-1 24 Oct 17:05:37 17:09:35 21° 268° (W) 17:13:33 436.925 FM
KITSAT 1 24 Oct 17:32:17 17:35:53 13° 350° (N) 17:39:28 435.175 FM
Hamsat 24 Oct 17:39:36 17:42:27 18° 66° (ENE) 17:45:17 145.90 MHz
Saudisat 1A 24 Oct 17:42:53 17:47:17 67° 239° (WSW) 17:51:40 436.775 MHz
Uosat F 24 Oct 17:52:36 17:57:22 44° 261° (W) 18:02:12 435.120 FM
UOSAT-12 24 Oct 17:54:56 17:57:28 14° 325° (NW) 18:00:01 437.025 FM, 437.400 FM
OPAL 24 Oct 17:55:06 17:57:57 15° 93° (E) 18:00:48 ?
AO-7 24 Oct 18:13:02 18:20:26 36° 263° (W) 18:27:54 29.400 - 29.500 MHz
ISS 24 Oct 18:36:01 18:38:50 24° 17° (NNE) 18:41:38 145.800 FM
JAS-2 24 Oct 18:48:28 18:54:19 65° 259° (W) 19:01:01 435.800 - 435.900 CW/SSB, 435.910 FM
SO-67 24 Oct 19:04:13 19:06:22 16° 67° (ENE) 19:08:30 435.3500 MHz FM
Hamsat 24 Oct 19:14:06 19:18:06 41° 262° (W) 19:22:05 145.90 MHz
KITSAT 1 24 Oct 19:30:32 19:35:24 17° 22° (NNE) 19:40:16 435.175 FM
OPAL 24 Oct 19:32:21 19:37:17 63° 290° (WNW) 19:42:09 ?
STRAND 1 24 Oct 19:38:17 19:42:08 21° 93° (E) 19:45:57 ?
ISS 24 Oct 20:12:28 20:15:49 77° 215° (SW) 20:19:08 145.800 FM
SO-67 24 Oct 20:36:02 20:39:06 30° 263° (W) 20:42:11 435.3500 MHz FM
HO-68 24 Oct 21:03:44 21:10:29 47° 65° (ENE) 21:17:17 435.675 MHz FM
STRAND 1 24 Oct 21:16:37 21:21:35 49° 290° (WNW) 21:26:31 ?
KITSAT 1 24 Oct 21:25:27 21:33:11 46° 48° (NE) 21:40:52 435.175 FM
Oscar 11 24 Oct 21:29:55 21:32:42 17° 64° (ENE) 21:35:29 145.825 FM, Beacon 2401.500 USB
SO-50 24 Oct 21:37:06 21:41:11 27° 44° (NE) 21:45:17 436.795 FM
ZACube-1 24 Oct 22:17:54 22:21:36 25° 67° (ENE) 22:25:16 437.345 MHz
UKube-1 24 Oct 22:22:30 22:26:49 69° 74° (ENE) 22:31:10 145.840 MHz, 145.915 MHz
RS-15 24 Oct 22:47:35 22:58:03 53° 112° (ESE) 23:08:26 29.354 - 29.394 USB, Beacon 29.352 USB
HO-68 24 Oct 22:51:54 22:58:19 35° 263° (W) 23:04:47 435.675 MHz FM
UOSAT-12 24 Oct 23:01:34 23:05:00 19° 39° (NE) 23:08:23 437.025 FM, 437.400 FM
FUNcube-1 24 Oct 23:01:38 23:06:11 68° 75° (ENE) 23:10:42 145.950 - 145.970 MHz USB
Oscar 11 24 Oct 23:04:20 23:08:31 47° 261° (W) 23:12:42 145.825 FM, Beacon 2401.500 USB
SO-50 24 Oct 23:17:18 23:21:58 48° 242° (WSW) 23:26:39 436.795 FM
KITSAT 1 24 Oct 23:21:01 23:28:35 46° 249° (WSW) 23:36:08 435.175 FM
MaSat-1 24 Oct 23:51:44 23:54:32 18° 107° (ESE) 23:57:11 437.345 MHz
ZACube-1 24 Oct 23:53:38 23:57:49 35° 263° (W) 00:01:59 437.345 MHz
UKube-1 25 Oct 00:02:13 00:03:28 11° 270° (W) 00:04:43 145.840 MHz, 145.915 MHz
UOSAT-12 25 Oct 00:40:56 00:45:39 71° 239° (WSW) 00:50:16 437.025 FM, 437.400 FM
FUNcube-1 25 Oct 00:41:06 00:42:59 12° 270° (W) 00:44:51 145.950 - 145.970 MHz USB
RS-15 25 Oct 00:59:55 01:10:28 51° 316° (NW) 01:21:05 29.354 - 29.394 USB, Beacon 29.352 USB
MaSat-1 25 Oct 01:26:07 01:29:58 39° 300° (WNW) 01:33:28 437.345 MHz
Oscar 19 25 Oct 01:58:09 02:00:06 12° 89° (E) 02:02:02 437.125 CW, 437.150 USB
AO-Echo 25 Oct 02:36:52 02:40:12 17° 90° (E) 02:43:31 ?
Oscar 16 25 Oct 02:41:48 02:46:26 33° 97° (E) 02:51:01 437.025 USB, Beacon 2401.1428
JAS-1B 25 Oct 02:44:10 02:50:22 37° 98° (E) 02:57:34 435.800 - 435.900 CW/SSB
